Change the Weather History Date:

Sunday, October 14, 2012

  Actual Average Record
Temperature  
Mean Temperature 68 °F 54 °F  
Max Temperature 77 °F 65 °F 84 °F (1989)
Min Temperature 59 °F 42 °F 25 °F (1988)
Degree Days  
Heating Degree Days 0 12  
Month to date heating degree days 165 137  
Since 1 July heating degree days 303 246  
Cooling Degree Days 3 0  
Month to date cooling degree days 4 7  
Year to date cooling degree days 978 766  
Growing Degree Days 17 (Base 50)    
Moisture  
Dew Point 54 °F    
Average Humidity 65    
Maximum Humidity 84    
Minimum Humidity 46    
Precipitation  
Precipitation 0.01 in 0.08 in 1.06 in (2014)
Month to date precipitation 0.69 1.23  
Year to date precipitation 27.86 30.76  
Sea Level Pressure  
Sea Level Pressure 29.90 in    
Wind  
Wind Speed 14 mph (South)    
Max Wind Speed 29 mph    
Max Gust Speed 40 mph    
Visibility 10 miles    
Events Rain    
T = Trace of Precipitation, MM = Missing Value Source: NWS Daily Summary

Daily Weather History Graph

Daily Weather History Graph

Search for Another Location

Airport or City:

Trip Planner

Search our weather history database for the weather conditions in past years. The results will help you decide how hot, cold, wet, or windy it might be!

Date:

Astronomy

Oct. 14, 2012 Rise Set
Actual Time 7:37 AM EDT 6:48 PM EDT
Civil Twilight 7:10 AM EDT 7:16 PM EDT
Nautical Twilight 6:38 AM EDT 7:47 PM EDT
Astronomical Twilight 6:07 AM EDT 8:18 PM EDT
Moon 6:35 AM EDT (10/14) 6:07 PM EDT (10/14)
Length of Visible Light 12h 05m
Length of Day
11h 11m
Waning Crescent, 1% of the Moon is Illuminated
Oct 14
Waning Crescent
Oct 15
New
Oct 21
First Quarter
Oct 29
Full
Nov 6
Last Quarter

Hourly Weather History & Observations

Time (EDT) Temp. Dew Point Humidity Pressure Visibility Wind Dir Wind Speed Gust Speed Precip Events Conditions
1:53 AM 61.0 °F 52.0 °F 72% 30.05 in 10.0 mi South 4.6 mph - N/A   Overcast
2:53 AM 61.0 °F 52.0 °F 72% 30.05 in 10.0 mi South 6.9 mph - N/A   Overcast
3:53 AM 61.0 °F 52.0 °F 72% 30.03 in 10.0 mi South 6.9 mph - N/A   Overcast
4:53 AM 61.0 °F 52.0 °F 72% 30.03 in 10.0 mi South 9.2 mph - N/A   Mostly Cloudy
5:53 AM 62.1 °F 52.0 °F 70% 30.04 in 10.0 mi South 9.2 mph - N/A   Overcast
6:53 AM 61.0 °F 52.0 °F 72% 30.04 in 10.0 mi South 10.4 mph - N/A   Overcast
7:53 AM 59.0 °F 51.1 °F 75% 30.04 in 10.0 mi South 11.5 mph - N/A   Mostly Cloudy
8:53 AM 61.0 °F 51.1 °F 70% 30.04 in 10.0 mi South 10.4 mph - N/A   Scattered Clouds
9:53 AM 62.1 °F 52.0 °F 70% 30.03 in 10.0 mi South 9.2 mph - N/A   Scattered Clouds
10:53 AM 64.9 °F 53.1 °F 65% 30.00 in 10.0 mi South 11.5 mph - N/A   Partly Cloudy
11:53 AM 70.0 °F 55.0 °F 59% 29.97 in 10.0 mi South 18.4 mph 29.9 mph N/A   Clear
12:53 PM 72.0 °F 55.0 °F 55% 29.93 in 10.0 mi SSW 19.6 mph 28.8 mph N/A   Clear
1:53 PM 75.0 °F 55.9 °F 51% 29.88 in 10.0 mi South 19.6 mph 31.1 mph N/A   Clear
2:53 PM 75.0 °F 54.0 °F 48% 29.84 in 10.0 mi SSW 16.1 mph 34.5 mph N/A   Partly Cloudy
4:53 PM 73.9 °F 55.0 °F 52% 29.79 in 10.0 mi South 13.8 mph 26.5 mph 0.00 in   Overcast
5:53 PM 72.0 °F 55.9 °F 57% 29.78 in 10.0 mi South 19.6 mph 28.8 mph 0.00 in Rain Light Rain
6:53 PM 72.0 °F 55.0 °F 55% 29.76 in 10.0 mi SSW 19.6 mph 27.6 mph 0.00 in   Overcast
7:53 PM 71.1 °F 55.0 °F 57% 29.73 in 10.0 mi South 17.3 mph 24.2 mph N/A   Mostly Cloudy
8:53 PM 71.1 °F 55.0 °F 57% 29.72 in 10.0 mi South 25.3 mph 36.8 mph N/A   Mostly Cloudy
9:53 PM 64.9 °F 59.0 °F 81% 29.73 in 10.0 mi SSW 12.7 mph - 0.01 in   Mostly Cloudy
10:53 PM 68.0 °F 57.0 °F 68% 29.71 in 10.0 mi South 15.0 mph - N/A   Mostly Cloudy
11:53 PM 69.1 °F 57.0 °F 65% 29.70 in 10.0 mi SSW 13.8 mph 23.0 mph 0.00 in Rain Light Rain